User: anonymous   Login
Location: Dammartin
(48.9032°N, 1.6195°E)
Time: 10:43:59
(UTC+00:00)
Language:

BlueWalker 3 - Orbit

View from above orbital plane
View from above orbital plane
View from above satellite
View from above satellite

Ground track
Ground track

The orbit data is extracted from the following two-line orbital elements,

1 53807U 22111AL  25138.81699534  .00008048  00000-0  26178-3 0  9991
2 53807  53.2328  77.7120 0008939  47.9553 312.2209 15.32781604149611
Epoch (UTC): 18 May 2025 19:36:28
Eccentricity: 0.0008939
inclination: 53.2328°
perigee height: 461 km
apogee height: 473 km
right ascension of ascending node: 77.7120°
argument of perigee: 47.9553°
revolutions per day: 15.32781604
mean anomaly at epoch: 312.2209°
orbit number at epoch: 14961

The dashed part of the orbit path shows where the satellite is in the earth's shadow,  

DLR